[Date Prev][Date Next][Thread Prev][Thread Next] - [Date Index][Thread Index][Author Index]

2 Line ISS Keps 11-11



ISS
1 25544U 98067A   05315.03278935  .00044404  00000-0  33339-3 0  7281
2 25544 051.6496 228.2490 0008637 266.6689 280.7700 15.72085625398798
----
Via the sarex mailing list at AMSAT.ORG courtesy of AMSAT-NA.
To unsubscribe, send "unsubscribe sarex" to Majordomo@amsat.org



AMSAT Top AMSAT Home